Weather in Yelan

Russia / Republic of Buryatia     50°32′27″N   107°20′59″E
temp.,
°C
wind,
m/s
gust,
m/s
humid.,
%
clouds,
%
prec.,
mm/h
press.,
hPa
HPBL,
m
11 april, sun
sun1123:000nne3654100 0.1 1027653
02:00−2nne3666100 0.1 1028187
05:00−3nne3856100 0.0 1030481
08:00−3nnw5856100 0.0 10321484
11:00−1n6831100 0.0 10322054
14:00+1nnw8927100 0.0 10312545
17:000nnw7927100 0.0 10322593
20:00−4n37383 0.0 1035253
12 april, mon
mon1223:00−6nw114554 0.0 103713
02:00−7wsw21526 0.0 103719
05:00−8sw116710 0.0 103819
08:00−4wsw24455 0.0 1037476
11:00−1wsw342971 0.0 10331357
14:00+3w462052 0.0 10291917
17:00+4nw4723100 0.0 10261925
20:000ene1137100 0.0 102613
13 april, tue
tue1323:00−1w1148100 0.0 102712
02:00−4wnw11715 0.1 102810
05:00−5sw11835 0.0 102810
08:00−1ssw11635 0.0 1026288
11:00+4sw46405 0.0 10221346
14:00+8wsw5732100 0.0 10171895
17:00+9w4629100 0.0 10142242
20:00+4ne3652100 0.0 1015133
14 april, wed
wed1423:00+2n3675100 0.1 1017346
02:00+1n3883100 0.9 1017820
05:00−1nnw3782100 0.1 1017688
08:00−1nnw3786100 2.1 1018706
11:00+1n5955100 0.4 10181631
14:00+3nnw7937100 0.4 10172414
17:00+3nnw71137100 0.1 10172657
20:00−2wnw115264 0.1 101811
15 april, thu
thu1523:00−4s116597 0.0 101911
02:00−4sw1172100 0.0 101914
05:00−3s2268100 0.1 101845
08:00−1nw5105655 0.1 10191390
11:00+2nw51034100 0.0 10172404
14:00+2nw4637100 0.1 10152029
17:00+2nnw4548100 0.1 10141404
20:00−1n485394 0.1 1016438